Regional Weather Roundup
Issued by NWS

Home | Current Version | Previous Version | Graphics & Text | Print | Product List | Glossary On
Versions: 1 2 3 4 5 6 7 8 9 10 11 12 13 14 15 16 17 18 19 20 21 22 23 24 25 26 27 28 29 30 31 32 33 34 35 36 37 38 39 40 41 42 43 44 45 46 47 48 49 50
000
ASUS45 KABQ 251910
RWRNM
NEW MEXICO REGIONAL WEATHER ROUNDUP
NATIONAL WEATHER SERVICE ALBUQUERQUE NM
100 PM MDT TUE JUL 25 2017

NOTE: "FAIR" MEANS FEW OR NO CLOUDS BELOW 12,000 FEET AGL WITH NO
       SIGNIFICANT WEATHER OR OBSTRUCTIONS TO VISION.

      THIS PRODUCT IS RELEASED AS TWO VERSIONS.  ONE VERSION NEAR
      THE TOP OF THE HOUR CONTAINING PRELIMINARY DATA FROM ALBUQUERQUE
      AND OTHER STATIONS.  A FINAL VERSION WITH ADDITIONAL DATA IS
      ISSUED ABOUT 10 MINUTES AFTER THE HOUR.

NMZ501-503-504-510>518-252000-
NORTHWEST PLATEAU/NORTHCENTRAL MOUNTAINS

CITY           SKY/WX    TMP DP  RH WIND       PRES   REMARKS
FARMINGTON     FAIR      82  58  43 VRB3      30.20F
LOS ALAMOS     FAIR      79  55  43 SE10G21   30.33F
SANTA FE       FAIR      83  57  41 SW10G17   30.26F
TAOS           FAIR      79  52  38 SW6       30.31F
ANGEL FIRE     FAIR      73  56  54 SW8G17    30.41F

$$
NMZ402-403-502-505>509-252000-
WESTCENTRAL MOUNTAINS/SOUTHWEST MOUNTAINS

CITY           SKY/WX    TMP DP  RH WIND       PRES   REMARKS
GALLUP         FAIR      76  58  53 W14G21    30.31F
GRANTS         PTSUNNY   78  53  40 SW9G17    30.32S

$$
NMZ407-409-411-412-252000-
SOUTHERN DESERTS

CITY           SKY/WX    TMP DP  RH WIND       PRES   REMARKS
DEMING         FAIR      87  62  43 VRB7      30.17F
LAS CRUCES     FAIR      86  62  44 E5        30.19F
HOLLOMAN AFB   FAIR      93  58  30 SE8       30.16F
ALAMOGORDO     FAIR      88  55  33 S9        30.17F
T OR C         FAIR      87  39  18 MISG      30.18F

$$
NMZ519>523-252000-
CENTRAL VALLEYS/CENTRAL HIGHLANDS

CITY           SKY/WX    TMP DP  RH WIND       PRES   REMARKS
ALBUQUERQUE    FAIR      85  57  38 CALM      30.21F
DOUBLE EAGLE   PTSUNNY   88  54  31 S7        30.24F
MORIARTY ARPT  FAIR      81  63  54 E9        30.28F
CLINES CORNERS FAIR      83  49  30 S12G24    30.33F
BELEN          FAIR      86  53  32 S9        30.19F
SOCORRO        FAIR      86  53  31 S3        30.19S

$$
NMZ524>526-539-540-252000-
SOUTHCENTRAL MOUNTAINS

CITY           SKY/WX    TMP DP  RH WIND       PRES   REMARKS
RUIDOSO        FAIR      81  54  39 W10       30.35F

$$
NMZ527>531-252000-
NORTHEAST HIGHLANDS/NORTHEAST PLAINS

CITY           SKY/WX    TMP DP  RH WIND       PRES   REMARKS
LAS VEGAS      FAIR      82  53  36 S12G24    30.29F
RATON          FAIR      88  52  29 S10G17    30.20F
CLAYTON        FAIR      94  54  25 S20G29    30.13F

$$
NMZ532>537-252000-
EASTCENTRAL PLAINS

CITY           SKY/WX    TMP DP  RH WIND       PRES   REMARKS
SANTA ROSA     MOCLDY    78  63  60 SE6       30.15S THUNDER
TUCUMCARI      PTSUNNY   94  58  29 S9G22     30.07F
CANNON AFB     LGT RAIN  85  67  54 SW14      30.16S
CLOVIS AIRPORT FAIR      93  61  34 S17       30.15F

$$
NMZ028-029-538-252000-
SOUTHEAST PLAINS

CITY           SKY/WX    TMP DP  RH WIND       PRES   REMARKS
ROSWELL        PTSUNNY   95  58  28 S15G23    30.07F
ARTESIA        FAIR      93  59  31 SW9G16    30.08F
CARLSBAD       FAIR      94  61  33 VRB6G24   30.06F
HOBBS          MOSUNNY   93  54  26 SE9G17    30.13F


$$




USA.gov is the U.S. government's official web portal to all federal, state and local government web resources and services.